SCP
0 0 0 0 0 0 0 0 0 0 0 -0 0 0 0 0 0 0 0 0 0 0 0 0 0 0 -0 0 0 0 0 0 0 0 0 0 0 0 0 0 0 0 0 0
0 0 0 0 0 0 0 0 0 0 -0 -0 0 0 0 0 0 0 0 0 0 0 -0 -0 0 -0 0 -0 0 0 0 0 0 0 0 0 0 0 0 0 0 0 0 0
0 0 0 0 0 0 0 0 0 0 -0 -0 -0 0 0 0 0 0 0 0 0 -0 -0 0 0 -0 0 -0 -0 0 0 0 0 0 0 0 0 0 0 0 0 0 0 0
0 0 0 0 0 0 0 0 0 0 0 0 0 0 0 0 0 0 0 0 -0 -0 -0 0 0 0 -0 -0 0 0 0 0 0 0 0 0 0 0 0 0 0 0 0 0
0 0 0 0 0 0 0 0 0 0 0 0 0 -0 0 0 -0 0 0 0 -0 -0 0 0 0 0 0 0 0 0 0 0 0 0 0 0 0 0 0 0 0 0 0 0
0 0 0 0 0 0 0 0 0 0 0 -0 -0 -0 0 -0 -0 0 0 -0 -0 -0 -0 -0 -0 0 -0 -0 0 0 0 0 0 0 0 0 0 0 0 0 0 0 0 0
0 0 0 0 0 0 0 0 0 0 0 0 -0 -0 0 0 -0 0 0 0 0 0 -0 -0 0 -0 0 -0 0 0 0 0 0 0 0 0 0 0 0 0 0 0 0 0
0 0 0 0 0 0 0 0 0 0 0 0 0 -0 0 0 -0 0 0 -0 -0 -0 -0 0 0 0 0 0 0 0 0 0 0 0 0 0 0 0 0 0 0 0 -0 -0
0 0 0 0 0 0 0 0 0 0 0 0 0 0 0 0 -0 0 0 0 -0 -0 0 0 0 0 0 0 0 0 0 0 0 0 0 0 0 0 0 0 0 0 0 0
0 0 0 0 0 0 0 0 0 0 0 0 0 0 0 0 0 0 0 -0 0 -0 -0 0 0 0 0 0 0 0 0 0 0 0 0 0 0 0 0 0 0 0 0 0
0 0 0 0 0 0 0 0 0 0 0 0 0 0 0 0 0 0 0 -0 0 0 -0 0 0 0 0 0 0 0 0 0 0 0 0 0 0 0 0 0 0 0 0 0
0 0 0 0 0 0 0 0 0 0 0 0 0 -0 -0 -0 -0 0 0 0 0 0 0 0 0 0 0 0 0 0 0 0 0 0 0 0 0 0 0 0 -0 0 0 0
0 0 0 0 0 0 0 0 0 0 0 0 0 -0 0 0 0 0 0 0 0 0 0 0 0 0 0 0 0 0 0 0 0 0 0 0 0 -0 -0 -0 -0 0 0 0
0 0 0 -0 0 0 0 0 0 0 0 -0 -0 0 -0 -0 0 0 0 0 0 0 0 0 0 0 0 0 0 0 0 0 0 0 0 0 -0 0 -0 -0 0 0 0 0
-0 -0 -0 -0 0 0 0 0 0 0 0 -0 -0 -0 -0 -0 0 0 0 0 0 0 0 0 0 0 0 0 0 0 0 0 0 0 0 0 0 0 0 -0 0 0 -0 -0
0 0 -0 -0 0 0 0 0 0 0 0 -0 -0 -0 -0 -0 -0 0 0 0 0 0 0 0 0 0 0 0 0 0 0 -0 0 0 0 0 0 0 0 0 0 0 0 0
0 0 -0 -0 0 0 0 0 0 0 0 0 -0 0 0 -0 -0 0 0 0 0 0 0 0 0 0 0 0 0 0 0 0 0 0 0 0 0 0 0 0 0 0 0 0
0 0 -0 0 0 0 0 0 0 0 0 0 -0 -0 0 -0 -0 -0 -0 0 0 0 0 0 0 0 0 0 0 0 0 0 0 0 0 0 0 0 0 0 0 0 0 0
0 -0 0 0 0 0 0 0 0 0 0 -0 -0 0 0 -0 -0 0 0 0 -0 0 0 0 0 0 0 -0 -0 -0 0 -0 -0 0 0 0 0 0 0 0 0 0 0 0
-0 0 0 0 0 -0 0 0 0 0 0 0 -0 -0 -0 -0 0 -0 0 0 0 -0 -0 0 -0 -0 -0 -0 -0 -0 -0 -0 0 -0 0 0 0 0 -0 0 0 0 0 0
0 0 0 0 0 0 0 0 0 0 0 -0 -0 0 -0 0 -0 0 0 0 0 0 0 0 0 -0 -0 0 0 0 0 0 0 -0 0 -0 -0 -0 0 0 0 0 0 0
0 0 0 0 0 0 0 -0 0 0 -0 0 0 -0 0 0 0 0 0 0 0 0 0 0 0 0 0 -0 0 -0 -0 -0 -0 -0 -0 0 0 0 0 0 0 0 0 0
0 0 0 0 0 0 0 0 0 0 -0 -0 0 -0 0 -0 -0 0 0 0 0 0 0 0 0 -0 0 -0 -0 -0 -0 -0 -0 -0 -0 0 0 0 0 0 0 0 0 0
0 0 0 0 0 0 0 0 0 -0 -0 -0 -0 -0 -0 0 -0 0 0 0 0 0 0 0 0 0 -0 -0 -0 -0 -0 -0 -0 -0 0 0 0 0 0 0 0 0 0 0
0 0 0 0 0 0 0 0 0 0 0 -0 0 -0 -0 -0 0 0 0 0 0 0 0 0 0 -0 -0 -0 -0 -0 -0 -0 -0 0 0 -0 -0 0 0 0 0 0 0 0
0 0 0 0 0 0 0 0 0 0 0 0 0 -0 0 0 0 0 0 0 0 0 0 0 0 -0 0 -0 -0 -0 -0 0 0 0 0 -0 -0 -0 -0 0 0 -0 0 0
0 0 0 0 0 0 0 0 0 0 0 0 0 0 0 0 0 0 0 0 0 0 0 0 0 0 0 0 0 0 0 0 0 0 0 0 0 0 0 -0 -0 -0 -0 -0
Wind_Speed_500mb
54 53 56 63 69 80 81 30 7 39 67 18 8 14 25 43 28 41 10 11 11 10 14 12 8 8 12 21 1 7 6 5 5 9 13 25 7 27 11 10 5 5 6 5
51 52 54 59 62 66 64 34 14 27 43 14 19 16 24 17 35 34 8 8 5 14 8 8 10 11 13 31 13 9 8 5 10 18 14 14 13 10 10 10 8 11 10 6
49 50 53 57 57 58 46 21 9 16 16 32 18 27 19 34 50 26 26 12 12 13 6 14 11 19 10 9 10 17 7 6 9 8 13 20 27 25 16 11 8 9 4 23
47 47 51 52 52 49 40 22 8 10 12 19 25 31 15 44 31 10 25 10 35 29 8 14 11 13 19 15 17 8 7 7 1 19 32 31 23 31 25 16 11 13 17 30
46 45 47 49 48 47 29 18 12 15 34 31 25 17 20 39 41 17 19 18 43 30 8 10 15 15 8 12 12 9 6 4 2 10 20 17 17 27 31 15 16 19 32 20
46 46 48 45 43 46 20 27 32 19 17 11 17 13 28 49 44 19 31 40 32 22 17 38 41 24 22 12 11 10 10 5 8 7 6 9 13 4 8 11 2 35 16 20
47 46 47 43 36 34 34 35 37 11 10 15 19 34 40 42 44 21 39 43 13 25 67 47 16 11 11 12 6 8 5 7 7 6 5 6 5 4 16 33 18 24 43 41
44 44 45 40 37 31 36 37 24 12 12 29 26 38 32 49 47 22 33 53 58 56 25 8 8 4 4 6 8 11 7 6 7 7 6 6 7 10 6 8 17 25 49 43
42 42 42 39 37 33 37 36 17 23 19 8 41 29 34 19 17 13 22 52 49 31 4 5 5 5 4 6 6 9 12 9 6 4 9 6 2 7 30 3 13 28 39 42
41 41 40 38 37 34 36 37 29 18 20 27 25 19 14 21 10 9 18 52 17 26 8 5 4 2 6 2 2 7 7 4 2 9 7 5 2 8 21 7 15 43 54 57
38 40 38 37 36 32 35 41 17 20 18 56 23 39 45 51 27 9 33 21 5 5 10 5 4 3 5 3 6 13 5 4 5 4 6 7 29 15 6 25 53 59 46 50
36 40 37 35 32 28 27 39 29 28 30 57 66 41 17 22 38 38 15 18 25 8 4 4 6 4 4 3 5 13 5 5 9 10 6 16 35 38 45 53 65 54 71 62
38 39 37 32 31 31 27 35 32 31 25 48 24 16 38 34 30 25 13 12 13 22 33 6 4 3 4 3 6 7 8 11 9 7 15 22 45 57 69 72 76 69 69 71
41 39 34 33 31 27 27 30 24 20 21 9 20 33 32 38 47 41 33 40 40 41 23 3 3 2 11 5 12 8 9 8 12 16 17 47 54 50 70 76 75 71 60 56
39 37 35 31 28 25 24 14 6 15 10 8 29 44 35 55 46 30 32 28 33 28 9 4 3 3 7 6 8 14 12 8 2 7 22 41 27 41 52 79 72 65 63 59
38 39 37 29 24 22 20 5 6 23 21 13 8 24 31 63 39 39 36 39 28 10 15 8 20 36 14 7 7 24 44 60 41 22 59 66 55 57 57 75 67 61 60 53
39 41 29 19 16 12 4 4 18 30 30 9 10 14 21 51 36 29 30 33 26 21 9 17 14 34 24 8 8 23 59 68 65 64 67 51 46 52 58 61 59 54 53 45
38 28 17 11 7 4 2 10 29 19 11 7 6 9 21 38 20 20 30 26 23 36 15 14 10 12 14 13 22 42 45 44 38 39 59 73 63 55 53 49 47 46 43 38
29 20 10 1 2 3 8 29 12 5 4 7 5 5 8 29 18 14 18 15 8 13 8 10 14 10 13 9 30 32 16 36 58 62 61 57 55 47 39 34 32 35 33 29
20 7 5 3 5 20 12 6 6 5 3 4 5 8 7 17 13 10 19 11 5 6 7 10 10 8 15 12 7 25 58 58 60 62 46 47 44 37 31 27 26 25 25 23
15 10 4 5 7 4 3 4 6 8 5 7 8 10 8 11 5 5 11 2 4 6 7 6 4 5 7 18 36 49 48 44 31 45 44 37 35 31 28 27 23 20 19 18
21 14 14 9 5 3 6 3 6 4 2 10 13 21 14 12 9 6 8 4 5 3 4 7 4 4 24 25 36 38 31 32 39 36 38 32 28 22 21 22 20 17 16 17
6 6 7 5 4 11 4 6 2 5 11 8 21 12 12 9 8 5 5 7 1 3 7 4 3 13 34 35 36 35 29 35 37 36 30 26 25 23 18 18 16 14 15 17
2 4 10 3 3 0 5 3 3 3 9 25 24 13 4 7 8 1 5 5 3 6 5 4 4 23 34 35 36 40 41 43 43 36 29 26 24 23 20 16 15 13 16 19
4 4 4 4 2 9 10 11 9 8 16 22 16 11 5 4 4 2 3 6 5 2 3 4 26 33 34 39 38 39 47 47 32 31 29 26 23 21 23 20 17 16 18 19
5 7 3 5 4 9 7 12 14 15 14 18 6 6 3 4 5 6 3 2 0 3 2 18 33 40 37 36 39 50 39 29 31 31 26 24 23 23 27 26 23 22 20 20
6 8 13 15 15 14 8 8 7 12 12 3 1 4 1 4 3 1 1 1 3 8 20 25 40 41 40 48 45 38 38 36 32 28 23 21 21 22 24 27 27 24 21 20
Wind_Direction_500mb
353 355 357 360 359 354 360 357 348 357 10 32 357 341 326 308 310 324 272 273 257 264 301 307 313 308 320 182 0 170 157 124 114 177 174 186 134 169 120 133 172 89 115 156
354 354 354 358 2 4 352 340 303 355 13 17 354 329 320 320 326 327 324 290 333 295 289 289 248 283 324 156 144 182 199 124 129 117 89 210 212 181 142 112 103 186 127 183
352 352 352 355 3 7 3 353 337 336 353 349 341 334 332 335 335 320 328 292 313 305 275 222 293 323 326 53 21 213 200 143 188 178 129 135 189 182 166 136 120 159 193 136
350 349 351 354 1 11 17 17 356 326 315 338 328 326 303 335 343 314 327 314 337 344 326 353 355 350 333 45 16 351 207 168 207 130 137 148 152 172 175 171 159 149 172 154
348 349 349 355 359 4 21 9 345 310 294 298 326 330 332 333 329 318 318 322 327 325 318 343 311 325 330 18 26 311 226 107 73 81 100 118 143 169 178 163 96 68 116 85
344 349 349 354 2 2 2 342 335 289 304 304 328 337 324 322 323 304 308 316 317 314 337 314 299 281 276 274 314 342 19 57 63 39 30 117 78 27 128 107 124 140 145 153
345 348 345 349 1 355 345 342 341 308 288 324 320 312 318 317 317 303 302 319 310 310 318 316 279 239 241 271 334 7 349 50 63 93 32 111 258 231 107 91 52 103 109 130
344 345 342 346 351 350 339 345 334 302 298 307 307 322 318 314 321 322 312 323 322 325 317 321 327 342 47 26 44 17 36 64 71 107 82 163 69 135 130 121 50 128 120 118
341 342 341 343 345 347 333 342 329 320 301 272 315 309 321 315 329 320 304 332 336 347 315 336 4 341 28 351 56 42 54 44 53 98 96 174 44 112 112 88 89 116 123 129
337 341 343 341 340 342 332 331 329 308 270 286 304 304 310 302 322 278 295 335 330 1 338 338 339 342 1 337 175 139 81 50 93 111 100 92 354 340 331 149 157 136 139 141
335 340 339 339 336 340 339 329 318 317 286 292 281 306 295 300 304 307 307 323 3 306 355 341 339 321 7 303 291 122 116 161 80 83 106 112 352 329 115 137 117 124 120 125
334 336 339 338 334 333 335 326 334 316 282 284 307 305 323 304 302 279 288 290 294 304 320 286 301 313 330 328 156 30 64 0 117 40 58 37 52 81 95 116 113 117 120 121
332 336 340 340 335 329 322 319 337 326 291 308 317 336 342 335 328 315 273 301 312 292 286 257 244 308 287 327 62 110 54 13 85 127 20 62 67 81 98 115 112 115 123 129
333 336 338 336 331 332 324 321 333 322 307 309 293 330 349 360 347 338 317 305 320 300 297 243 324 330 312 42 68 66 13 27 101 82 113 77 56 74 103 108 113 113 115 117
332 334 331 327 326 337 331 333 3 339 343 283 292 321 358 359 359 358 356 9 348 321 345 339 71 23 28 2 65 29 356 172 104 88 90 104 92 94 109 113 109 113 115 111
330 327 323 312 312 330 347 324 285 336 330 319 304 323 324 357 6 14 27 12 358 356 7 353 8 12 49 47 70 11 59 75 96 98 99 100 101 105 107 108 111 110 105 101
330 326 321 304 299 315 336 343 323 325 319 295 293 304 329 347 350 358 8 5 8 19 59 14 19 20 38 34 53 55 72 84 91 99 105 90 102 103 108 106 106 105 101 101
331 327 321 325 294 312 184 267 318 312 311 296 317 290 321 354 341 342 355 352 7 22 29 7 15 32 49 50 77 89 87 95 96 105 114 112 115 112 109 109 111 106 99 96
336 329 319 333 339 333 312 314 327 354 330 321 315 304 311 338 338 334 341 2 37 21 25 12 16 28 38 144 140 129 94 114 114 112 111 115 110 111 112 113 111 104 102 100
339 345 257 188 304 313 324 357 346 1 357 341 265 291 286 325 328 323 357 19 34 56 356 18 26 68 135 155 140 130 128 126 127 120 113 116 114 118 121 117 112 107 108 110
1 339 299 348 327 333 353 4 23 350 14 331 301 297 288 333 0 291 16 306 349 59 300 91 44 67 5 111 129 137 135 133 128 122 120 116 108 118 123 122 116 113 109 110
342 331 318 357 15 36 70 350 334 0 305 310 326 319 308 314 330 8 359 27 17 43 343 59 65 39 146 135 139 141 138 133 126 121 117 110 103 100 108 114 114 112 111 112
346 312 300 327 7 35 71 341 19 351 330 330 335 322 334 323 339 343 357 28 129 47 37 69 95 106 138 153 154 153 153 145 133 124 113 106 99 98 95 107 110 108 111 112
315 301 327 146 292 230 219 282 230 288 299 329 331 301 307 337 347 23 17 347 69 70 73 100 127 124 148 165 164 157 152 147 137 132 125 107 98 96 94 97 97 104 113 111
281 254 272 247 306 289 283 294 284 312 319 327 316 293 259 293 331 9 27 19 55 95 157 153 140 146 156 150 155 148 144 138 135 140 124 108 95 91 100 99 99 102 109 115
249 238 266 243 316 301 277 294 296 320 307 314 278 281 13 350 360 29 41 322 284 208 198 138 148 152 154 156 150 139 140 159 149 137 122 112 103 98 100 97 97 99 101 114
244 244 241 255 273 262 280 282 278 321 318 280 284 306 23 293 347 218 186 134 181 155 137 140 153 162 157 146 147 166 172 159 147 139 127 116 114 114 106 102 103 100 100 117
Wind_Speed_850mb
54 53 56 63 69 80 81 30 7 39 67 18 8 14 25 43 28 41 10 11 11 10 14 12 8 8 12 21 1 7 6 5 5 9 13 25 7 27 11 10 5 5 6 5
51 52 54 59 62 66 64 34 14 27 43 14 19 16 24 17 35 34 8 8 5 14 8 8 10 11 13 31 13 9 8 5 10 18 14 14 13 10 10 10 8 11 10 6
49 50 53 57 57 58 46 21 9 16 16 32 18 27 19 34 50 26 26 12 12 13 6 14 11 19 10 9 10 17 7 6 9 8 13 20 27 25 16 11 8 9 4 23
47 47 51 52 52 49 40 22 8 10 12 19 25 31 15 44 31 10 25 10 35 29 8 14 11 13 19 15 17 8 7 7 1 19 32 31 23 31 25 16 11 13 17 30
46 45 47 49 48 47 29 18 12 15 34 31 25 17 20 39 41 17 19 18 43 30 8 10 15 15 8 12 12 9 6 4 2 10 20 17 17 27 31 15 16 19 32 20
46 46 48 45 43 46 20 27 32 19 17 11 17 13 28 49 44 19 31 40 32 22 17 38 41 24 22 12 11 10 10 5 8 7 6 9 13 4 8 11 2 35 16 20
47 46 47 43 36 34 34 35 37 11 10 15 19 34 40 42 44 21 39 43 13 25 67 47 16 11 11 12 6 8 5 7 7 6 5 6 5 4 16 33 18 24 43 41
44 44 45 40 37 31 36 37 24 12 12 29 26 38 32 49 47 22 33 53 58 56 25 8 8 4 4 6 8 11 7 6 7 7 6 6 7 10 6 8 17 25 49 43
42 42 42 39 37 33 37 36 17 23 19 8 41 29 34 19 17 13 22 52 49 31 4 5 5 5 4 6 6 9 12 9 6 4 9 6 2 7 30 3 13 28 39 42
41 41 40 38 37 34 36 37 29 18 20 27 25 19 14 21 10 9 18 52 17 26 8 5 4 2 6 2 2 7 7 4 2 9 7 5 2 8 21 7 15 43 54 57
38 40 38 37 36 32 35 41 17 20 18 56 23 39 45 51 27 9 33 21 5 5 10 5 4 3 5 3 6 13 5 4 5 4 6 7 29 15 6 25 53 59 46 50
36 40 37 35 32 28 27 39 29 28 30 57 66 41 17 22 38 38 15 18 25 8 4 4 6 4 4 3 5 13 5 5 9 10 6 16 35 38 45 53 65 54 71 62
38 39 37 32 31 31 27 35 32 31 25 48 24 16 38 34 30 25 13 12 13 22 33 6 4 3 4 3 6 7 8 11 9 7 15 22 45 57 69 72 76 69 69 71
41 39 34 33 31 27 27 30 24 20 21 9 20 33 32 38 47 41 33 40 40 41 23 3 3 2 11 5 12 8 9 8 12 16 17 47 54 50 70 76 75 71 60 56
39 37 35 31 28 25 24 14 6 15 10 8 29 44 35 55 46 30 32 28 33 28 9 4 3 3 7 6 8 14 12 8 2 7 22 41 27 41 52 79 72 65 63 59
38 39 37 29 24 22 20 5 6 23 21 13 8 24 31 63 39 39 36 39 28 10 15 8 20 36 14 7 7 24 44 60 41 22 59 66 55 57 57 75 67 61 60 53
39 41 29 19 16 12 4 4 18 30 30 9 10 14 21 51 36 29 30 33 26 21 9 17 14 34 24 8 8 23 59 68 65 64 67 51 46 52 58 61 59 54 53 45
38 28 17 11 7 4 2 10 29 19 11 7 6 9 21 38 20 20 30 26 23 36 15 14 10 12 14 13 22 42 45 44 38 39 59 73 63 55 53 49 47 46 43 38
29 20 10 1 2 3 8 29 12 5 4 7 5 5 8 29 18 14 18 15 8 13 8 10 14 10 13 9 30 32 16 36 58 62 61 57 55 47 39 34 32 35 33 29
20 7 5 3 5 20 12 6 6 5 3 4 5 8 7 17 13 10 19 11 5 6 7 10 10 8 15 12 7 25 58 58 60 62 46 47 44 37 31 27 26 25 25 23
15 10 4 5 7 4 3 4 6 8 5 7 8 10 8 11 5 5 11 2 4 6 7 6 4 5 7 18 36 49 48 44 31 45 44 37 35 31 28 27 23 20 19 18
21 14 14 9 5 3 6 3 6 4 2 10 13 21 14 12 9 6 8 4 5 3 4 7 4 4 24 25 36 38 31 32 39 36 38 32 28 22 21 22 20 17 16 17
6 6 7 5 4 11 4 6 2 5 11 8 21 12 12 9 8 5 5 7 1 3 7 4 3 13 34 35 36 35 29 35 37 36 30 26 25 23 18 18 16 14 15 17
2 4 10 3 3 0 5 3 3 3 9 25 24 13 4 7 8 1 5 5 3 6 5 4 4 23 34 35 36 40 41 43 43 36 29 26 24 23 20 16 15 13 16 19
4 4 4 4 2 9 10 11 9 8 16 22 16 11 5 4 4 2 3 6 5 2 3 4 26 33 34 39 38 39 47 47 32 31 29 26 23 21 23 20 17 16 18 19
5 7 3 5 4 9 7 12 14 15 14 18 6 6 3 4 5 6 3 2 0 3 2 18 33 40 37 36 39 50 39 29 31 31 26 24 23 23 27 26 23 22 20 20
6 8 13 15 15 14 8 8 7 12 12 3 1 4 1 4 3 1 1 1 3 8 20 25 40 41 40 48 45 38 38 36 32 28 23 21 21 22 24 27 27 24 21 20
Wind_Direction_850mb
353 355 357 360 359 354 360 357 348 357 10 32 357 341 326 308 310 324 272 273 257 264 301 307 313 308 320 182 0 170 157 124 114 177 174 186 134 169 120 133 172 89 115 156
354 354 354 358 2 4 352 340 303 355 13 17 354 329 320 320 326 327 324 290 333 295 289 289 248 283 324 156 144 182 199 124 129 117 89 210 212 181 142 112 103 186 127 183
352 352 352 355 3 7 3 353 337 336 353 349 341 334 332 335 335 320 328 292 313 305 275 222 293 323 326 53 21 213 200 143 188 178 129 135 189 182 166 136 120 159 193 136
350 349 351 354 1 11 17 17 356 326 315 338 328 326 303 335 343 314 327 314 337 344 326 353 355 350 333 45 16 351 207 168 207 130 137 148 152 172 175 171 159 149 172 154
348 349 349 355 359 4 21 9 345 310 294 298 326 330 332 333 329 318 318 322 327 325 318 343 311 325 330 18 26 311 226 107 73 81 100 118 143 169 178 163 96 68 116 85
344 349 349 354 2 2 2 342 335 289 304 304 328 337 324 322 323 304 308 316 317 314 337 314 299 281 276 274 314 342 19 57 63 39 30 117 78 27 128 107 124 140 145 153
345 348 345 349 1 355 345 342 341 308 288 324 320 312 318 317 317 303 302 319 310 310 318 316 279 239 241 271 334 7 349 50 63 93 32 111 258 231 107 91 52 103 109 130
344 345 342 346 351 350 339 345 334 302 298 307 307 322 318 314 321 322 312 323 322 325 317 321 327 342 47 26 44 17 36 64 71 107 82 163 69 135 130 121 50 128 120 118
341 342 341 343 345 347 333 342 329 320 301 272 315 309 321 315 329 320 304 332 336 347 315 336 4 341 28 351 56 42 54 44 53 98 96 174 44 112 112 88 89 116 123 129
337 341 343 341 340 342 332 331 329 308 270 286 304 304 310 302 322 278 295 335 330 1 338 338 339 342 1 337 175 139 81 50 93 111 100 92 354 340 331 149 157 136 139 141
335 340 339 339 336 340 339 329 318 317 286 292 281 306 295 300 304 307 307 323 3 306 355 341 339 321 7 303 291 122 116 161 80 83 106 112 352 329 115 137 117 124 120 125
334 336 339 338 334 333 335 326 334 316 282 284 307 305 323 304 302 279 288 290 294 304 320 286 301 313 330 328 156 30 64 0 117 40 58 37 52 81 95 116 113 117 120 121
332 336 340 340 335 329 322 319 337 326 291 308 317 336 342 335 328 315 273 301 312 292 286 257 244 308 287 327 62 110 54 13 85 127 20 62 67 81 98 115 112 115 123 129
333 336 338 336 331 332 324 321 333 322 307 309 293 330 349 360 347 338 317 305 320 300 297 243 324 330 312 42 68 66 13 27 101 82 113 77 56 74 103 108 113 113 115 117
332 334 331 327 326 337 331 333 3 339 343 283 292 321 358 359 359 358 356 9 348 321 345 339 71 23 28 2 65 29 356 172 104 88 90 104 92 94 109 113 109 113 115 111
330 327 323 312 312 330 347 324 285 336 330 319 304 323 324 357 6 14 27 12 358 356 7 353 8 12 49 47 70 11 59 75 96 98 99 100 101 105 107 108 111 110 105 101
330 326 321 304 299 315 336 343 323 325 319 295 293 304 329 347 350 358 8 5 8 19 59 14 19 20 38 34 53 55 72 84 91 99 105 90 102 103 108 106 106 105 101 101
331 327 321 325 294 312 184 267 318 312 311 296 317 290 321 354 341 342 355 352 7 22 29 7 15 32 49 50 77 89 87 95 96 105 114 112 115 112 109 109 111 106 99 96
336 329 319 333 339 333 312 314 327 354 330 321 315 304 311 338 338 334 341 2 37 21 25 12 16 28 38 144 140 129 94 114 114 112 111 115 110 111 112 113 111 104 102 100
339 345 257 188 304 313 324 357 346 1 357 341 265 291 286 325 328 323 357 19 34 56 356 18 26 68 135 155 140 130 128 126 127 120 113 116 114 118 121 117 112 107 108 110
1 339 299 348 327 333 353 4 23 350 14 331 301 297 288 333 0 291 16 306 349 59 300 91 44 67 5 111 129 137 135 133 128 122 120 116 108 118 123 122 116 113 109 110
342 331 318 357 15 36 70 350 334 0 305 310 326 319 308 314 330 8 359 27 17 43 343 59 65 39 146 135 139 141 138 133 126 121 117 110 103 100 108 114 114 112 111 112
346 312 300 327 7 35 71 341 19 351 330 330 335 322 334 323 339 343 357 28 129 47 37 69 95 106 138 153 154 153 153 145 133 124 113 106 99 98 95 107 110 108 111 112
315 301 327 146 292 230 219 282 230 288 299 329 331 301 307 337 347 23 17 347 69 70 73 100 127 124 148 165 164 157 152 147 137 132 125 107 98 96 94 97 97 104 113 111
281 254 272 247 306 289 283 294 284 312 319 327 316 293 259 293 331 9 27 19 55 95 157 153 140 146 156 150 155 148 144 138 135 140 124 108 95 91 100 99 99 102 109 115
249 238 266 243 316 301 277 294 296 320 307 314 278 281 13 350 360 29 41 322 284 208 198 138 148 152 154 156 150 139 140 159 149 137 122 112 103 98 100 97 97 99 101 114
244 244 241 255 273 262 280 282 278 321 318 280 284 306 23 293 347 218 186 134 181 155 137 140 153 162 157 146 147 166 172 159 147 139 127 116 114 114 106 102 103 100 100 117